[[{"header":{"parameterUnit":"m.s-1","parameterCategory":1,"la1":30.2991,"la2":30.254,"lo1":-89.0895,"lo2":-89.0444,"dy":0.0017,"dx":0.0017,"nx":28,"ny":28,"refTime":"2024-07-31T21:00:00:Z","depth":0,"parameterNumber":2,"parameterNumberName":"U-component_of_WINDS"},"data":[0,0,0,0,0,0,0,0,0,0,0,0,0,0,0,0,0,0,0,0,0,0,0,0,0,0,0,0,0,0,0,0,0,0,0,0,0,0,0,0,0,0,0,0,0,0,0,0,0,0,0,0,0,0,0,0,0,0,1.4368,1.437,0,1.4511,1.4512,1.4514,1.4529,1.4527,1.4526,1.4524,1.4673,1.4678,1.4684,0,0,0,0,0,0,0,0,0,0,0,0,0,1.411,1.4115,1.4368,1.437,1.4372,1.451,1.4512,1.4514,1.4529,1.4527,1.4525,1.4524,1.4671,1.4678,1.4684,0,0,0,0,0,0,0,0,0,0,0,0,0,1.4234,1.4116,1.4368,1.4395,1.4399,1.451,1.4512,1.4515,1.4529,1.4527,1.4525,1.4523,1.4669,1.4677,1.4685,1.4778,0,0,1.4709,1.4713,0,0,0,0,0,0,0,0,1.4227,1.4244,1.439,1.4394,1.4398,1.4499,1.4476,1.4603,1.453,1.448,1.4524,1.4522,1.4617,1.463,1.4661,1.4785,1.4792,1.471,1.4715,1.4718,1.4721,0,0,0,0,0,0,0,1.4219,1.4238,1.4424,1.4392,1.4397,1.4401,1.4417,1.45,1.4559,1.4484,1.4486,1.4502,1.4619,1.4653,1.4665,1.4794,1.471,1.4717,1.4722,1.4725,1.5,1.5003,0,0,0,0,0,0,1.4205,1.4231,1.442,1.4429,1.4306,1.4408,1.4425,1.4469,1.4559,1.457,1.4504,1.4502,1.4641,1.4655,1.467,1.4784,1.4718,1.4726,1.473,1.4998,1.5001,1.5004,0,0,0,0,0,0,1.4199,1.4221,1.4414,1.433,1.4355,1.4415,1.4464,1.4473,1.4507,1.4573,1.4584,1.4528,1.464,1.4659,1.4751,1.479,1.4729,1.4737,1.4995,1.4999,1.5002,1.5014,0,0,0,0,0,0,1.4192,1.4219,1.4255,1.4331,1.4359,1.4492,1.4467,1.4478,1.4521,1.452,1.4599,1.4609,1.4639,1.4739,1.4759,1.48,1.4743,1.4992,1.4997,1.5001,1.501,1.5017,1.5024,0,0,0,0,0,1.4182,1.4254,1.4257,1.428,1.4405,1.4494,1.4511,1.4543,1.4524,1.456,1.4602,1.4607,1.4782,1.4748,1.4771,1.4814,1.499,1.4995,1.5001,1.5007,1.5016,1.5023,0,0,0,0,0,0,1.4182,1.4264,1.4269,1.4366,1.4423,1.4497,1.4544,1.4552,1.4616,1.4612,1.4651,1.4668,1.4758,1.4796,1.4756,1.4909,1.4884,1.4894,1.4881,1.489,1.4897,1.4886,1.475,0,0,0,0,0,1.4193,1.4258,1.4326,1.4406,1.4434,1.4484,1.4524,1.4544,1.4604,1.4629,1.4678,1.4737,1.4806,1.485,1.4917,1.5016,1.5033,1.5057,1.5063,1.5069,1.5077,1.5131,1.5142,1.5022,1.5022,1.5022,0,0,1.4218,1.427,1.4309,1.4407,1.4454,1.452,1.4504,1.4576,1.4625,1.464,1.4729,1.4767,1.4836,1.4931,1.4976,1.4966,1.5114,1.5076,1.508,1.5085,1.5138,1.5149,1.5159,1.5026,1.5026,1.5025,0,0,1.4295,1.4342,1.4413,1.4459,1.4529,1.4561,1.4578,1.465,1.4675,1.4765,1.4777,1.4837,1.4955,1.5002,1.5042,1.5136,1.5143,1.5157,1.5192,1.5244,1.5254,1.5262,1.5295,1.5306,1.5166,1.5166,1.5166,0,1.4317,1.4417,1.4448,1.4519,1.4561,1.4576,1.4648,1.4692,1.478,1.4809,1.4796,1.4942,1.499,1.5096,1.5118,1.5151,1.5171,1.5148,1.525,1.5259,1.5267,1.5299,1.5311,1.5167,1.5167,1.5167,1.5166,0,1.4439,1.4508,1.4557,1.464,1.4689,1.476,1.4802,1.4847,1.4862,1.4896,1.4987,1.5044,1.5122,1.5149,1.5165,1.5257,1.5248,1.5242,1.5218,1.5279,1.531,1.5322,1.5169,1.5168,1.5168,1.5167,0,0,1.4522,1.462,1.4638,1.4675,1.4752,1.4806,1.4878,1.4952,1.499,1.505,1.5111,1.5209,1.5203,1.5248,1.527,1.5315,1.5385,1.5304,1.5306,1.5316,1.5489,1.5492,1.5506,1.5389,1.5392,1.5394,1.5482,0,1.4608,1.4734,1.4764,1.4872,1.4936,1.495,1.5012,1.5067,1.51,1.5159,1.5196,1.5265,1.5252,1.5279,1.5325,1.5366,1.542,1.5361,1.5446,1.5449,1.5428,1.5522,1.5526,1.5607,1.5495,1.5497,1.5498,0,1.4725,1.4786,1.49,1.4968,1.4996,1.5051,1.5121,1.5177,1.5239,1.526,1.5309,1.5326,1.5401,1.5372,1.5476,1.5435,1.5471,1.5497,1.5501,1.551,1.5477,1.5533,1.5634,1.5646,1.5517,1.5516,1.5514,0,1.4772,1.4883,1.4966,1.4997,1.5078,1.5116,1.5152,1.5212,1.5254,1.5316,1.5343,1.5413,1.5452,1.5506,1.554,1.5517,1.5641,1.5616,1.566,1.5659,1.5685,1.5683,1.5793,1.571,1.571,1.5709,1.5709,0,1.4865,1.4934,1.4988,1.5038,1.5116,1.515,1.5226,1.5262,1.5314,1.5372,1.539,1.5444,1.5487,1.5547,1.5575,1.5656,1.5673,1.5692,1.5699,1.569,1.5688,1.5715,1.571,1.5713,1.5712,1.5711,1.5711,0,1.4931,1.497,1.506,1.5129,1.5148,1.5202,1.5261,1.5311,1.5344,1.5417,1.5436,1.5488,1.556,1.56,1.569,1.5709,1.5798,1.5803,1.5777,1.578,1.5821,1.5817,1.5953,1.5972,1.5876,1.5877,1.5877,0,1.4987,1.504,1.5114,1.5154,1.5189,1.5253,1.5296,1.5331,1.5375,1.5448,1.5489,1.5561,1.5621,1.5734,1.5781,1.5849,1.5855,1.5898,1.5866,1.5855,1.5855,1.5851,1.5856,1.5903,1.5904,1.5905,1.5905,0,1.5082,1.5099,1.5159,1.5227,1.5277,1.5332,1.5386,1.5418,1.5462,1.5511,1.5583,1.5629,1.572,1.5791,1.5864,1.5901,1.5911,1.5915,1.5929,1.5921,1.5903,1.5912,1.5792,1.5912,1.5911,1.5911,1.591,1.591,1.5145,1.5192,1.5251,1.5318,1.5362,1.5412,1.5462,1.55,1.5561,1.5637,1.5654,1.573,1.579,1.5887,1.5926,1.5987,1.5979,1.5999,1.6004,1.6008,1.6009,1.5894,1.6,1.6,1.6,1.6,1.6,0,1.524,1.5278,1.5339,1.5414,1.5467,1.547,1.553,1.5574,1.564,1.5694,1.5752,1.5834,1.5903,1.5954,1.6024,1.6063,1.6069,1.608,1.6077,1.6085,1.6013,1.5993,1.6074,1.6074,1.6073,1.6073,1.6073,1.6073,1.5296,1.5376,1.5399,1.5501,1.5539,1.5612,1.5646,1.5692,1.5735,1.5826,1.5883,1.5915,1.5968,1.6042,1.6105,1.6118,1.6143,1.6154,1.6167,1.6099,1.6091,1.6083,1.6065,1.6159,1.6159,1.6235,1.6236,1.6236]},{"header":{"parameterUnit":"m.s-1","parameterCategory":1,"la1":30.2991,"la2":30.254,"lo1":-89.0895,"lo2":-89.0444,"dy":0.0017,"dx":0.0017,"nx":28,"ny":28,"refTime":"2024-07-31T21:00:00:Z","depth":0,"parameterNumber":3,"parameterNumberName":"V-component_of_WINDS"},"data":[0,0,0,0,0,0,0,0,0,0,0,0,0,0,0,0,0,0,0,0,0,0,0,0,0,0,0,0,0,0,0,0,0,0,0,0,0,0,0,0,0,0,0,0,0,0,0,0,0,0,0,0,0,0,0,0,0,0,3.1191,3.1191,0,3.1217,3.1217,3.1217,3.117,3.1168,3.1167,3.1165,3.1189,3.1191,3.1193,0,0,0,0,0,0,0,0,0,0,0,0,0,3.1098,3.11,3.1191,3.1191,3.1192,3.1217,3.1217,3.1217,3.117,3.1168,3.1166,3.1164,3.1188,3.1191,3.1193,0,0,0,0,0,0,0,0,0,0,0,0,0,3.1132,3.11,3.1191,3.1171,3.117,3.1217,3.1217,3.1217,3.117,3.1168,3.1166,3.1163,3.1188,3.1191,3.1194,3.126,0,0,3.1203,3.1205,0,0,0,0,0,0,0,0,3.113,3.1136,3.1174,3.1173,3.1171,3.1188,3.1193,3.1232,3.1171,3.117,3.1165,3.1162,3.119,3.1193,3.1203,3.1262,3.1263,3.1204,3.1206,3.1207,3.1208,0,0,0,0,0,0,0,3.1128,3.1134,3.1201,3.1174,3.1173,3.116,3.1162,3.12,3.1193,3.117,3.1167,3.117,3.1189,3.12,3.1203,3.1263,3.1204,3.1206,3.1208,3.121,3.1376,3.1378,0,0,0,0,0,0,3.1128,3.1133,3.12,3.1202,3.1144,3.1163,3.1166,3.1185,3.1193,3.1191,3.1172,3.1168,3.1196,3.12,3.1204,3.1282,3.1207,3.121,3.1212,3.1373,3.1376,3.1379,0,0,0,0,0,0,3.1127,3.1135,3.1199,3.1166,3.1174,3.1168,3.1189,3.1186,3.1197,3.1194,3.1193,3.1185,3.1194,3.1199,3.1247,3.1282,3.1211,3.1214,3.137,3.1374,3.1378,3.1438,0,0,0,0,0,0,3.1124,3.1135,3.1161,3.1167,3.1176,3.1243,3.1191,3.1189,3.1203,3.1198,3.1206,3.1205,3.1193,3.1242,3.125,3.1285,3.1217,3.1367,3.1372,3.1377,3.1433,3.1444,3.1453,0,0,0,0,0,3.1121,3.1177,3.1162,3.1171,3.1208,3.1245,3.1249,3.1235,3.1206,3.1232,3.123,3.1205,3.1277,3.1247,3.1255,3.1292,3.1365,3.1371,3.1376,3.1429,3.1442,3.1453,0,0,0,0,0,0,3.1174,3.1177,3.1161,3.1221,3.1233,3.1237,3.1269,3.1249,3.1269,3.1263,3.1243,3.1246,3.1296,3.1299,3.1266,3.1356,3.1316,3.1323,3.1353,3.1365,3.1375,3.1373,3.1219,0,0,0,0,0,3.1193,3.1223,3.1224,3.1276,3.1283,3.1275,3.1291,3.1278,3.129,3.1294,3.1295,3.1307,3.1332,3.1349,3.1371,3.1433,3.1433,3.1462,3.1472,3.148,3.1487,3.1518,3.1531,3.1398,3.1398,3.1398,0,0,3.1232,3.1237,3.1258,3.1287,3.1295,3.1326,3.128,3.1315,3.1337,3.1299,3.1344,3.1345,3.1356,3.1411,3.1435,3.1414,3.1524,3.1487,3.1494,3.1496,3.1525,3.1538,3.1549,3.1402,3.1401,3.14,0,0,3.1318,3.1326,3.137,3.1379,3.1391,3.1385,3.1396,3.1402,3.1402,3.1446,3.1418,3.1444,3.1488,3.1496,3.1507,3.1595,3.1572,3.1603,3.1654,3.1685,3.1695,3.1705,3.1735,3.1747,3.161,3.161,3.161,0,3.1365,3.1411,3.1395,3.1432,3.1445,3.1412,3.1456,3.1465,3.1484,3.1493,3.147,3.1524,3.1529,3.1585,3.1606,3.1616,3.1626,3.1602,3.1695,3.1704,3.1713,3.1742,3.1753,3.1613,3.1613,3.1613,3.1612,0,3.1467,3.1499,3.1533,3.1553,3.157,3.161,3.1598,3.1617,3.1603,3.1599,3.1644,3.1649,3.1672,3.1684,3.1671,3.1737,3.1724,3.1699,3.1658,3.1729,3.1756,3.1767,3.1618,3.1617,3.1616,3.1615,0,0,3.1589,3.1598,3.1611,3.1619,3.1629,3.1654,3.1691,3.1714,3.173,3.1744,3.1774,3.1811,3.1788,3.1799,3.1786,3.1813,3.1882,3.1784,3.1784,3.1802,3.1954,3.1973,3.1986,3.1867,3.1869,3.187,3.1953,0,3.1674,3.174,3.1726,3.179,3.1818,3.1787,3.182,3.1829,3.1826,3.1849,3.1845,3.1872,3.1839,3.1846,3.1871,3.1868,3.1912,3.1862,3.1894,3.1895,3.1892,3.2,3.2021,3.2098,3.1963,3.1965,3.1967,0,3.1783,3.1801,3.1868,3.1873,3.1884,3.1914,3.1933,3.1956,3.1965,3.1961,3.1973,3.1955,3.199,3.1949,3.1998,3.1964,3.1976,3.1976,3.1979,3.1981,3.1935,3.2005,3.2123,3.2134,3.1983,3.1982,3.1981,0,3.1863,3.1905,3.195,3.1957,3.1965,3.1986,3.199,3.1997,3.2011,3.2027,3.2036,3.2056,3.2067,3.2082,3.2069,3.2041,3.2119,3.2077,3.2116,3.2116,3.2134,3.2133,3.2255,3.2143,3.2143,3.2142,3.2142,0,3.196,3.2002,3.1986,3.2014,3.2059,3.2042,3.2087,3.2087,3.2094,3.212,3.2094,3.2119,3.21,3.2123,3.2113,3.2154,3.216,3.2156,3.2153,3.2159,3.2159,3.2166,3.216,3.2145,3.2145,3.2144,3.2144,0,3.2058,3.2049,3.2096,3.2099,3.21,3.2134,3.2135,3.216,3.2155,3.2188,3.2195,3.2187,3.2212,3.2201,3.2228,3.2221,3.2273,3.2263,3.2271,3.2268,3.2307,3.2303,3.2437,3.2453,3.2331,3.2333,3.2334,0,3.212,3.2152,3.2158,3.2173,3.2179,3.2205,3.2219,3.2203,3.2218,3.2231,3.2254,3.2278,3.2295,3.2338,3.2333,3.2354,3.2343,3.2389,3.2346,3.235,3.2343,3.2341,3.2344,3.2397,3.2399,3.24,3.2401,0,3.2231,3.2225,3.2246,3.2266,3.2284,3.2299,3.2311,3.2326,3.2309,3.2328,3.2354,3.2368,3.2395,3.2418,3.2436,3.2438,3.2417,3.2414,3.2424,3.243,3.2432,3.2431,3.2293,3.2411,3.241,3.241,3.2409,3.2409,3.2312,3.2338,3.2346,3.2371,3.2378,3.239,3.2414,3.2411,3.2433,3.2454,3.2442,3.2473,3.248,3.2501,3.2506,3.2529,3.2511,3.2525,3.2529,3.2533,3.2538,3.2429,3.2532,3.2532,3.2532,3.2531,3.2531,0,3.2421,3.2424,3.2447,3.2465,3.2484,3.2462,3.2475,3.2492,3.2519,3.2527,3.2545,3.2575,3.2597,3.2594,3.2614,3.2632,3.2623,3.2638,3.2636,3.2637,3.2553,3.2542,3.2645,3.2645,3.2645,3.2645,3.2645,3.2645,3.248,3.2522,3.2517,3.2562,3.2565,3.2594,3.2603,3.2613,3.262,3.2654,3.2672,3.267,3.2674,3.2694,3.2713,3.2711,3.2719,3.2738,3.2733,3.2655,3.2643,3.2632,3.2622,3.274,3.274,3.2815,3.2816,3.2816]}]]